SL-3 R/B, 12457

Orbit data source: Space-Track

SL-3 R/B, 12457 is space debris in LEO originally from a launch on Thu, 14 May 1981 UTC launched from the Plesetsk Missile And Space Complex (PKMTR). Debris objects in space refer to the collection of defunct objects orbiting the Earth. Examples of debris include non-operational satellites, rocket bodies, and fragments generated from explosions, collisions, or faulty payload assembly.

Loading next visibility...
Identifier
12457, 1981-043B
Orbit
LEO
Country
Flag of CISCIS
Related business
Manufacturer
Progress
Mission
Spacecraft
Bus & Motor
BLOK-E, Unknown motor
Mass
1,440 kg wet, 1,440 kg dry
Launch date (UTC)
1981-05-14 (44 years ago)
Launch vehicle
Unknown
Launch site
Plesetsk Missile And Space Complex (PKMTR)
Object type
Payload
Rocket body
Debris
Shape & HBR
Cyl, 1.9 m
Radar Cross Section
10.414 m², Large (>1 m²)

Expand to show TLE details & history
Last TLE update: 19 hours ago

TLE from 19 hours ago
0 SL-3 R/B
1 12457U 81043B   25259.55253072  .00000247  00000-0  13690-3 0  9992
2 12457  81.2708  88.3925 0061608 311.4706  48.1182 14.07625729276311
Epoch: 2025-09-16T13:15Z
TLE epoch observation values (Epoch: 2025-09-16T13:15:38.654Z)
Latitude
-0.00005°
Longitude
-106.25976°
Altitude
840.752 km
Speed
7.448 km/s
True Right ascension
05h 53m 34s
True Declination
0° 00' 00"
Sunlit
Object was in daylight at epoch
Visualization orbit readout
Latitude
Unknown
Longitude
Unknown
Altitude
Unknown
Speed
Unknown
Apparent Right ascension
Unknown
Apparent Declination
Unknown
Sunlit
N/A
Visualization observer readout
Local Sidereal Time
00:37:01
Azimuth
Unknown
Elevation
Unknown
Doppler factor
Unknown
Orbital elements
Apogee altitude
909.305 km
Perigee altitude
820.062 km
Semi-major axis
7,242.821 km
Eccentricity
0.00616
Inclination
81.2708°
RAAN
88.3925°
Arg. of periapsis
311.4706°
True anomaly
48.64652°
Mean anomaly
48.1182°
Eccentric anomaly
48.38209°
Mean motion
3.52113 °/min
Orbital period
102.24 mins
BSTAR
0.0001369
Loading maneuver chart data...
Computing Atmospheric mass density...
Loading historical data...
Loading historical data...
Loading historical data...
Loading historical data...
Loading historical data...
Loading historical data...
Loading historical data...

Documentation

Showing up to 5 results
|